Showing default

COSMOS 1877, 18336

Orbit data source: Space-Track

COSMOS 1877, 18336 is a payload satellite owned by UNKS (CIS) in LEO that was launched on Mon, 07 Sep 1987 UTC via a TSIKLON-3 launch vehicle from the Plesetsk Missile And Space Complex (PKMTR). Payload-class satellites include a variety of spacecraft equipped with specific instruments for various scientific and technological missions. These include communications satellites like Starlink; space stations such as the ISS; scientific satellites like the Hubble; Earth observation satellites from companies like Planet Labs, Umbra, and HawkEye 360; GPS; miniature CubeSats for education and research; and military/defense satellites.

Loading next visibility...
Identifier
18336, 1987-074C
Orbit
LEO
Country
Flag of CISCIS
Related business
Manufacturer
NPO PM
Mission
Defense Communications
Bus & Motor
STRELA-3, Unknown motor
Mass
225 kg wet, 225 kg dry
Launch date (UTC)
1987-09-07 (38 years ago)
Launch vehicle
TSIKLON-3
Launch site
Plesetsk Missile And Space Complex (PKMTR)
Object type
Payload
Rocket body
Debris
Shape & HBR
Cyl, 0.8 m
Radar Cross Section
1.257 m², Medium (>0.1 m² and < 1m²)

Expand to show TLE details & history
Last TLE update: 8 hours ago

TLE from 8 hours ago
0 COSMOS 1877
1 18336U 87074C   26061.81166148  .00000014  00000-0  19076-4 0  9999
2 18336  82.5686   5.8664 0000536 291.0597 129.5938 12.63661898774807
Epoch: 2026-03-02T19:28Z
TLE epoch observation values (Epoch: 2026-03-02T19:28:47.551Z)
Latitude
59.90146°
Longitude
-73.99243°
Altitude
1,418.271 km
Speed
7.157 km/s
True Right ascension
01h 15m 13s
True Declination
59° 45' 53"
Sunlit
Object was in daylight at epoch
Visualization orbit readout
Latitude
Unknown
Longitude
Unknown
Altitude
Unknown
Speed
Unknown
Apparent Right ascension
Unknown
Apparent Declination
Unknown
Sunlit
N/A
Visualization observer readout
Local Sidereal Time
07:10:42
Azimuth
Unknown
Elevation
Unknown
Doppler factor
Unknown
Orbital elements
Apogee altitude
1,405.603 km
Perigee altitude
1,404.768 km
Semi-major axis
7,783.322 km
Eccentricity
0.00005
Inclination
82.5686°
RAAN
5.8664°
Arg. of periapsis
291.0597°
True anomaly
129.59853°
Mean anomaly
129.5938°
Eccentric anomaly
129.59617°
Mean motion
3.16079 °/min
Orbital period
113.9 mins
BSTAR
0.000019076
Loading maneuver chart data...
Computing Atmospheric mass density...
Loading historical data...
Loading historical data...
Loading historical data...
Loading historical data...
Loading historical data...
Loading historical data...
Loading historical data...

Documentation

Showing up to 5 results
|